KA2QBS Weather Reports


Display with metric or nautical units.
time (UTC)temp
F
wind
direction
speed
MPH
gust
MPH
rain 1hr
in
rain 24hr
in
rain mn
in
humidity
%
barometer
mb
20260506093011 49 24 1.0 8.0 0.00 0.00 0.00 98 1008.6
20260506091505 49 290 0.0 3.0 0.00 0.00 0.00 98 1008.7
20260506090003 49 290 0.0 0.0 0.00 0.00 0.00 98 1008.5
20260506084508 49 290 0.0 0.0 0.00 0.00 0.00 98 1008.3
20260506083001 49 290 0.0 0.0 0.00 0.00 0.00 98 1008.4
20260506081504 49 290 0.0 0.0 0.00 0.00 0.00 98 1008.5
20260506080112 49 290 0.0 0.0 0.00 0.00 0.00 97 1008.9
20260506073110 49 290 0.0 3.0 0.00 0.00 0.00 98 1009.9
20260506071554 50 290 0.0 0.0 0.00 0.00 0.00 98 1009.2
20260506061559 50 290 0.0 0.0 0.00 0.00 0.00 97 1010.0
20260506044540 51 290 0.0 3.0 0.00 0.00 0.00 96 1010.5
20260506043037 52 290 0.0 1.0 0.00 0.00 0.00 96 1010.7
20260506041535 52 290 0.0 1.0 0.00 0.00 0.00 96 1010.8
20260506040032 52 290 0.0 0.0 0.00 0.00 0.00 96 1010.8
20260506034532 52 290 0.0 0.0 0.00 0.00 0.00 96 1010.7
20260506033034 52 290 0.0 0.0 0.00 0.00 0.00 95 1010.5
20260506031532 53 290 0.0 3.0 0.00 0.00 0.00 95 1010.6
20260506030029 53 290 0.0 0.0 0.00 0.00 0.00 94 1010.6
20260506024527 53 290 0.0 0.0 0.00 0.00 0.00 94 1010.5
20260506023026 53 290 0.0 0.0 0.00 0.00 0.00 94 1010.8
20260506021525 53 290 0.0 0.0 0.00 0.00 0.00 94 1010.3
20260506020042 53 290 0.0 0.0 0.00 0.00 0.00 94 1010.5
20260506014524 53 290 0.0 0.0 0.00 0.00 0.00 93 1010.1
20260506013021 54 290 0.0 1.0 0.00 0.00 0.00 92 1010.3
20260506011523 54 289 0.0 6.0 0.00 0.00 0.00 91 1010.2
20260506010116 55 287 1.0 5.0 0.00 0.00 0.00 89 1009.8
20260506004522 57 321 0.0 2.0 0.00 0.00 0.00 86 1009.1
20260506003012 59 302 1.0 8.0 0.00 0.00 0.00 84 1009.3
20260506001509 60 277 2.0 8.0 0.00 0.00 0.00 83 1008.6
20260506000006 61 311 2.0 10.0 0.00 0.00 0.00 88 1008.2
20260505234503 61 135 0.0 0.0 0.00 0.00 0.00 91 1007.5
20260505233002 62 135 0.0 0.0 0.00 0.00 0.00 91 1007.3
20260505231502 62 135 0.0 2.0 0.00 0.00 0.00 90 1007.3
20260505230005 62 135 0.0 1.0 0.00 0.00 0.00 89 1007.1
20260505224501 63 134 0.0 0.0 0.00 0.00 0.00 88 1007.1
20260505223001 63 134 0.0 2.0 0.00 0.00 0.00 87 1006.9
20260505221501 63 134 0.0 2.0 0.00 0.00 0.00 88 1006.6
20260505220109 62 135 0.0 0.0 0.00 0.00 0.00 88 1006.5
20260505214612 62 134 0.0 0.0 0.00 0.00 0.00 89 1006.5
20260505213059 61 134 0.0 5.0 0.00 0.00 0.00 89 1006.7
20260505211636 61 128 0.0 3.0 0.00 0.00 0.00 92 1007.1
20260505210058 60 128 0.0 0.0 0.00 0.00 0.00 90 1007.2
20260505204605 61 128 0.0 1.0 0.00 0.00 0.00 89 1006.7
20260505203059 60 128 0.0 4.0 0.00 0.00 0.00 89 1006.7
20260505201557 59 261 0.0 5.0 0.00 0.00 0.00 91 1006.9
20260505200055 60 284 0.0 13.0 0.00 0.00 0.00 88 1007.4
20260505194553 61 282 7.0 21.0 0.00 0.00 0.00 82 1007.2
20260505193051 65 309 7.0 18.0 0.00 0.00 0.00 77 1007.0
20260505191552 68 177 0.0 9.0 0.00 0.00 0.00 73 1005.4
20260505190050 68 222 3.0 7.0 0.00 0.00 0.00 71 1005.4
20260505184550 68 226 2.0 13.0 0.00 0.00 0.00 68 1005.3
20260505183050 71 292 7.0 15.0 0.00 0.00 0.00 56 1005.1
20260505181622 70 249 0.0 1.0 0.00 0.00 0.00 65 1005.1
20260505174548 73 272 5.0 20.0 0.00 0.00 0.00 54 1004.8
20260505173047 74 271 6.0 17.0 0.00 0.00 0.00 51 1004.9
20260505171555 76 262 7.0 17.0 0.00 0.00 0.00 47 1004.7
20260505170045 76 278 9.0 17.0 0.00 0.00 0.00 48 1004.7
20260505164547 75 273 4.0 10.0 0.00 0.00 0.00 49 1004.9
20260505163041 74 234 8.0 18.0 0.00 0.00 0.00 50 1005.4
20260505161540 75 283 5.0 14.0 0.00 0.00 0.00 49 1005.5
20260505153042 75 261 6.0 16.0 0.00 0.00 0.00 52 1005.7
20260505151534 74 263 4.0 10.0 0.00 0.00 0.00 53 1005.7
20260505124508 63 219 1.0 11.0 0.00 0.00 0.00 65 1006.7
20260505123006 63 227 2.0 10.0 0.00 0.00 0.00 65 1006.7
20260505121505 62 217 0.0 6.0 0.00 0.00 0.00 67 1006.5
20260505120004 62 232 1.0 13.0 0.00 0.00 0.00 67 1006.7
20260505114503 62 229 2.0 12.0 0.00 0.00 0.00 67 1006.3
20260505113003 61 202 2.0 8.0 0.00 0.00 0.00 69 1006.7
20260505111504 60 221 2.0 11.0 0.00 0.00 0.00 70 1006.6
20260505101604 57 182 0.0 2.0 0.00 0.00 0.00 78 1006.3
20260505100056 57 182 0.0 1.0 0.00 0.00 0.00 79 1006.6
20260505094553 58 183 0.0 2.0 0.00 0.00 0.00 77 1006.6
20260505093050 61 203 1.0 7.0 0.00 0.00 0.00 66 1006.7